DECAYED

VOLGA R/B, 44425 (Decayed)

Orbit data source: Space-Track

VOLGA R/B, 44425 was space debris in LEO originally from a launch on Wed, 10 Jul 2019 UTC launched from the Plesetsk Missile And Space Complex (PKMTR). Debris objects in space refer to the collection of defunct objects orbiting the Earth. Examples of debris include non-operational satellites, rocket bodies, and fragments generated from explosions, collisions, or faulty payload assembly.

Not visible in the next 10 days
Identifier
44425, 2019-039E
Orbit
Decayed
Country
Flag of CISCIS
Related business
Manufacturer
TsSKB-Progress
Mission
Decayed spacecraft
Bus & Motor
VOLGA, Unknown motor
Mass
~1,120 kg wet, 1,120 kg dry
Launch date (UTC)
2019-07-10 (7 years ago)
Launch vehicle
Unknown
Launch site
Plesetsk Missile And Space Complex (PKMTR)
Object type
Payload
Rocket body
Debris
Shape & HBR
Cyl, 1.6 m
Radar Cross Section
6.585 m², Large (>1 m²)

Expand to show TLE details & history
Last TLE update: 11 months ago

TLE from 11 months ago
0 VOLGA R/B
1 44425U 19039E   25195.10029677  .18814549  26529-5  11945-3 0  9997
2 44425  97.4315 321.7118 0014193 257.5828 276.4005 16.53639047336604
Epoch: 2025-07-14T02:24Z
TLE epoch observation values (Epoch: 2025-07-14T02:24:25.640Z)
Latitude
6.03828°
Longitude
174.17694°
Altitude
131.438 km
Speed
7.828 km/s
True Right ascension
09h 29m 59s
True Declination
5° 59' 56"
Sunlit
Object was in daylight at epoch
Visualization orbit readout
Latitude
Unknown
Longitude
Unknown
Altitude
Unknown
Speed
Unknown
Apparent Right ascension
Unknown
Apparent Declination
Unknown
Sunlit
N/A
Visualization observer readout
Local Sidereal Time
10:51:42
Azimuth
Unknown
Elevation
Unknown
Doppler factor
Unknown
Orbital elements
Apogee altitude
135.794 km
Perigee altitude
117.33 km
Semi-major axis
6,504.699 km
Eccentricity
0.00142
Inclination
97.4315°
RAAN
321.7118°
Arg. of periapsis
257.5828°
True anomaly
276.23884°
Mean anomaly
276.4005°
Eccentric anomaly
276.31967°
Mean motion
4.13716 °/min
Orbital period
87.02 mins
BSTAR
0.00011945
Loading maneuver chart data...
Computing Atmospheric mass density...

Documentation

Showing up to 5 results
|